Location: Ferma
(41.9500°N, 44.5167°E)
Time: 13:07:20
(UTC+00:00)

Cosmos 220 Rocket - Pass Details

Date: 29 May 2022
Orbit: 572 x 614 km, 74.0° (Epoch: 03 July)

Event Time Altitude Azimuth Distance (km) Brightness Sun altitude
Exits shadow 19:48:19 27° 66° (ENE) 1,116 5.4 -24.2°
Drops below altitude 10° 19:50:47 10° 38° (NE) 1,884 6.9 -24.4°
Sets 19:53:08 0° 29° (NNE) 2,788 8.0 -24.5°
